QPF
0.00 0.00 0.01 0.01 0.02 0.02 0.02 0.01 0.02 0.02 0.01 0.01 0.01 0.01 0.01 0.02 0.02 0.02 0.05 0.09 0.10 0.07 0.06 0.06 0.06 0.06 0.06 0.05 0.05 0.05 0.05 0.05 0.05 0.07 0.09 0.11 0.08 0.07 0.05 0.05 0.04 0.03 0.03
0.00 0.00 0.00 0.00 0.00 0.01 0.01 0.01 0.01 0.01 0.02 0.02 0.02 0.01 0.01 0.00 0.01 0.02 0.05 0.05 0.06 0.07 0.06 0.05 0.07 0.07 0.08 0.08 0.07 0.05 0.04 0.04 0.05 0.06 0.09 0.09 0.06 0.05 0.04 0.03 0.04 0.04 0.04
0.00 0.00 0.00 0.00 0.00 0.00 0.00 0.00 0.00 0.01 0.01 0.02 0.02 0.01 0.01 0.01 0.00 0.02 0.04 0.04 0.03 0.06 0.07 0.05 0.06 0.08 0.08 0.08 0.07 0.07 0.06 0.05 0.05 0.05 0.06 0.06 0.06 0.05 0.04 0.04 0.04 0.04 0.04
0.01 0.01 0.00 0.00 0.00 0.00 0.00 0.00 0.00 0.00 0.01 0.01 0.01 0.01 0.02 0.02 0.01 0.01 0.03 0.05 0.05 0.06 0.07 0.06 0.06 0.07 0.08 0.07 0.06 0.07 0.08 0.08 0.06 0.06 0.06 0.05 0.05 0.04 0.04 0.04 0.04 0.03 0.03
0.03 0.02 0.01 0.01 0.00 0.00 0.00 0.00 0.00 0.00 0.00 0.01 0.01 0.01 0.02 0.02 0.02 0.02 0.03 0.06 0.07 0.06 0.07 0.07 0.07 0.08 0.08 0.06 0.06 0.07 0.08 0.09 0.08 0.05 0.04 0.03 0.03 0.02 0.03 0.03 0.04 0.04 0.04
0.03 0.03 0.02 0.01 0.00 0.01 0.00 0.00 0.00 0.00 0.00 0.01 0.01 0.01 0.01 0.02 0.03 0.03 0.04 0.06 0.08 0.10 0.09 0.08 0.08 0.09 0.09 0.07 0.06 0.07 0.07 0.08 0.08 0.07 0.06 0.05 0.03 0.02 0.02 0.02 0.02 0.03 0.04
0.03 0.03 0.02 0.01 0.01 0.01 0.01 0.01 0.01 0.01 0.00 0.01 0.01 0.01 0.01 0.02 0.03 0.03 0.04 0.05 0.07 0.09 0.12 0.10 0.08 0.06 0.06 0.07 0.05 0.05 0.06 0.06 0.04 0.04 0.04 0.04 0.04 0.03 0.02 0.02 0.01 0.01 0.02
0.05 0.04 0.02 0.01 0.01 0.01 0.01 0.02 0.02 0.01 0.01 0.01 0.01 0.02 0.02 0.03 0.03 0.03 0.03 0.04 0.05 0.07 0.10 0.11 0.09 0.06 0.04 0.03 0.04 0.04 0.04 0.04 0.03 0.02 0.02 0.02 0.03 0.03 0.03 0.02 0.02 0.02 0.02
0.05 0.03 0.02 0.02 0.01 0.01 0.01 0.02 0.03 0.03 0.01 0.01 0.01 0.01 0.02 0.03 0.03 0.04 0.03 0.04 0.05 0.06 0.07 0.08 0.08 0.08 0.06 0.04 0.04 0.03 0.03 0.03 0.03 0.03 0.02 0.02 0.02 0.02 0.03 0.03 0.03 0.03 0.02
0.02 0.02 0.01 0.01 0.02 0.02 0.01 0.01 0.02 0.02 0.01 0.01 0.01 0.01 0.01 0.01 0.02 0.03 0.04 0.05 0.05 0.04 0.03 0.04 0.05 0.06 0.05 0.05 0.04 0.04 0.03 0.02 0.03 0.03 0.03 0.03 0.03 0.03 0.03 0.03 0.03 0.03 0.02
0.02 0.02 0.02 0.02 0.01 0.01 0.01 0.01 0.00 0.01 0.01 0.01 0.01 0.01 0.00 0.01 0.02 0.02 0.03 0.06 0.06 0.05 0.05 0.03 0.03 0.03 0.05 0.05 0.05 0.04 0.03 0.02 0.03 0.03 0.04 0.06 0.05 0.04 0.04 0.04 0.04 0.04 0.03
0.03 0.03 0.02 0.02 0.01 0.01 0.01 0.01 0.01 0.00 0.01 0.01 0.01 0.01 0.01 0.01 0.01 0.02 0.02 0.03 0.05 0.07 0.06 0.05 0.05 0.03 0.04 0.05 0.05 0.05 0.04 0.02 0.02 0.02 0.02 0.02 0.02 0.03 0.04 0.06 0.05 0.04 0.04
0.04 0.03 0.02 0.02 0.01 0.01 0.01 0.01 0.01 0.01 0.01 0.00 0.01 0.01 0.01 0.01 0.01 0.01 0.02 0.02 0.03 0.04 0.05 0.04 0.05 0.06 0.04 0.04 0.05 0.05 0.03 0.02 0.01 0.01 0.01 0.01 0.01 0.02 0.04 0.03 0.02 0.02 0.02
0.03 0.02 0.02 0.01 0.01 0.01 0.01 0.01 0.01 0.01 0.01 0.01 0.01 0.01 0.01 0.01 0.01 0.01 0.02 0.03 0.02 0.02 0.03 0.03 0.03 0.03 0.05 0.05 0.05 0.05 0.03 0.02 0.01 0.01 0.01 0.01 0.00 0.01 0.02 0.02 0.01 0.00 0.01
0.03 0.03 0.02 0.01 0.01 0.01 0.01 0.01 0.01 0.01 0.01 0.01 0.01 0.01 0.01 0.01 0.01 0.01 0.02 0.03 0.02 0.01 0.02 0.02 0.02 0.02 0.02 0.04 0.05 0.04 0.03 0.02 0.02 0.01 0.01 0.01 0.00 0.00 0.00 0.01 0.01 0.00 0.00
0.03 0.04 0.04 0.03 0.01 0.01 0.01 0.01 0.01 0.01 0.01 0.01 0.01 0.01 0.01 0.01 0.01 0.01 0.01 0.02 0.01 0.01 0.01 0.01 0.02 0.02 0.02 0.03 0.04 0.04 0.04 0.04 0.02 0.01 0.01 0.01 0.00 0.00 0.00 0.00 0.00 0.00 0.00
0.04 0.03 0.04 0.03 0.02 0.02 0.01 0.01 0.01 0.00 0.00 0.00 0.01 0.01 0.01 0.01 0.01 0.01 0.01 0.02 0.01 0.01 0.01 0.01 0.01 0.02 0.02 0.02 0.04 0.03 0.03 0.04 0.03 0.02 0.01 0.01 0.00 0.00 0.02 0.01 0.00 0.00 0.00
0.05 0.04 0.03 0.03 0.03 0.02 0.02 0.01 0.01 0.01 0.01 0.01 0.01 0.01 0.01 0.01 0.01 0.01 0.02 0.02 0.01 0.01 0.01 0.01 0.01 0.01 0.02 0.02 0.03 0.04 0.04 0.03 0.03 0.02 0.01 0.01 0.00 0.00 0.01 0.01 0.00 0.00 0.00
0.07 0.07 0.04 0.03 0.03 0.03 0.03 0.02 0.02 0.02 0.02 0.02 0.02 0.02 0.02 0.01 0.01 0.02 0.02 0.01 0.01 0.01 0.01 0.01 0.01 0.01 0.01 0.02 0.02 0.03 0.04 0.04 0.04 0.02 0.01 0.01 0.02 0.01 0.01 0.01 0.00 0.00 0.00
0.04 0.05 0.05 0.03 0.02 0.02 0.02 0.02 0.02 0.02 0.02 0.01 0.02 0.02 0.02 0.03 0.03 0.03 0.02 0.02 0.02 0.02 0.02 0.02 0.01 0.01 0.02 0.02 0.01 0.03 0.03 0.04 0.04 0.03 0.02 0.01 0.02 0.03 0.03 0.01 0.00 0.00 0.01
0.04 0.03 0.03 0.02 0.02 0.01 0.01 0.02 0.02 0.02 0.01 0.01 0.01 0.02 0.02 0.03 0.03 0.03 0.03 0.02 0.02 0.02 0.03 0.03 0.03 0.03 0.02 0.02 0.02 0.02 0.03 0.03 0.03 0.02 0.02 0.02 0.02 0.03 0.02 0.01 0.01 0.02 0.02
0.03 0.03 0.03 0.03 0.02 0.01 0.01 0.01 0.01 0.01 0.01 0.01 0.01 0.01 0.01 0.02 0.02 0.02 0.03 0.03 0.03 0.03 0.03 0.03 0.03 0.03 0.03 0.03 0.02 0.02 0.03 0.03 0.03 0.02 0.01 0.01 0.00 0.02 0.02 0.01 0.01 0.01 0.02
0.02 0.02 0.02 0.02 0.02 0.01 0.02 0.02 0.01 0.01 0.01 0.01 0.01 0.01 0.01 0.01 0.02 0.02 0.03 0.02 0.02 0.02 0.03 0.03 0.04 0.04 0.04 0.03 0.03 0.02 0.02 0.03 0.03 0.03 0.02 0.01 0.00 0.01 0.01 0.01 0.01 0.01 0.02
0.01 0.01 0.01 0.01 0.01 0.01 0.01 0.02 0.02 0.01 0.01 0.01 0.01 0.01 0.01 0.01 0.01 0.01 0.02 0.01 0.02 0.02 0.03 0.04 0.04 0.04 0.03 0.04 0.04 0.04 0.03 0.03 0.03 0.03 0.02 0.02 0.01 0.01 0.01 0.01 0.01 0.01 0.02
0.01 0.02 0.02 0.01 0.01 0.01 0.01 0.01 0.01 0.01 0.01 0.01 0.01 0.01 0.02 0.01 0.02 0.02 0.01 0.01 0.02 0.03 0.03 0.04 0.04 0.05 0.05 0.05 0.05 0.05 0.04 0.04 0.03 0.03 0.03 0.02 0.02 0.01 0.01 0.01 0.01 0.01 0.02
0.02 0.02 0.02 0.02 0.01 0.01 0.01 0.01 0.01 0.01 0.00 0.00 0.01 0.01 0.01 0.01 0.01 0.02 0.01 0.01 0.01 0.02 0.02 0.02 0.03 0.04 0.05 0.05 0.05 0.04 0.03 0.03 0.03 0.03 0.03 0.02 0.02 0.02 0.02 0.01 0.01 0.02 0.02
MSLP
1015.87 1015.57 1015.16 1014.68 1014.15 1013.61 1013.09 1012.60 1012.14 1011.71 1011.31 1010.95 1010.64 1010.40 1010.25 1010.21 1010.28 1010.46 1010.70 1010.99 1011.27 1011.52 1011.73 1011.90 1012.03 1012.17 1012.33 1012.54 1012.79 1013.09 1013.41 1013.74 1014.06 1014.36 1014.62 1014.86 1015.07 1015.27 1015.46 1015.64 1015.79 1015.91 1016.01
1016.32 1016.06 1015.70 1015.26 1014.76 1014.24 1013.72 1013.20 1012.68 1012.18 1011.69 1011.23 1010.83 1010.50 1010.28 1010.20 1010.24 1010.41 1010.68 1010.99 1011.32 1011.62 1011.88 1012.09 1012.27 1012.43 1012.61 1012.81 1013.06 1013.34 1013.64 1013.96 1014.28 1014.57 1014.85 1015.10 1015.33 1015.54 1015.73 1015.91 1016.05 1016.16 1016.24
1016.60 1016.38 1016.08 1015.71 1015.29 1014.83 1014.34 1013.83 1013.29 1012.73 1012.16 1011.61 1011.11 1010.69 1010.39 1010.23 1010.23 1010.37 1010.63 1010.95 1011.31 1011.65 1011.97 1012.23 1012.46 1012.67 1012.87 1013.09 1013.34 1013.61 1013.91 1014.21 1014.51 1014.80 1015.08 1015.33 1015.57 1015.79 1015.99 1016.17 1016.31 1016.41 1016.49
1016.69 1016.52 1016.29 1016.02 1015.70 1015.33 1014.92 1014.44 1013.92 1013.33 1012.71 1012.08 1011.48 1010.97 1010.58 1010.34 1010.27 1010.36 1010.58 1010.90 1011.26 1011.63 1011.98 1012.30 1012.58 1012.84 1013.09 1013.35 1013.62 1013.90 1014.19 1014.49 1014.78 1015.06 1015.32 1015.58 1015.82 1016.04 1016.25 1016.43 1016.58 1016.69 1016.76
1016.64 1016.50 1016.35 1016.17 1015.97 1015.72 1015.40 1015.00 1014.51 1013.93 1013.28 1012.61 1011.94 1011.35 1010.88 1010.56 1010.41 1010.43 1010.59 1010.86 1011.20 1011.56 1011.93 1012.28 1012.62 1012.93 1013.24 1013.55 1013.86 1014.17 1014.47 1014.77 1015.05 1015.32 1015.58 1015.82 1016.06 1016.29 1016.50 1016.69 1016.85 1016.97 1017.05
1016.50 1016.38 1016.28 1016.20 1016.12 1015.99 1015.78 1015.48 1015.05 1014.51 1013.87 1013.18 1012.48 1011.84 1011.30 1010.91 1010.68 1010.61 1010.69 1010.89 1011.17 1011.50 1011.85 1012.21 1012.57 1012.94 1013.30 1013.67 1014.03 1014.38 1014.72 1015.03 1015.31 1015.58 1015.82 1016.06 1016.29 1016.51 1016.73 1016.93 1017.11 1017.25 1017.35
1016.30 1016.19 1016.14 1016.14 1016.15 1016.14 1016.05 1015.84 1015.51 1015.04 1014.44 1013.78 1013.09 1012.43 1011.86 1011.41 1011.11 1010.96 1010.94 1011.04 1011.23 1011.48 1011.78 1012.12 1012.48 1012.88 1013.28 1013.70 1014.11 1014.51 1014.89 1015.22 1015.52 1015.79 1016.03 1016.25 1016.48 1016.70 1016.92 1017.13 1017.32 1017.48 1017.61
1016.10 1015.98 1015.96 1016.02 1016.11 1016.19 1016.20 1016.10 1015.87 1015.48 1014.97 1014.37 1013.73 1013.11 1012.54 1012.07 1011.71 1011.48 1011.36 1011.34 1011.41 1011.56 1011.77 1012.04 1012.38 1012.76 1013.19 1013.64 1014.10 1014.55 1014.96 1015.33 1015.65 1015.92 1016.16 1016.38 1016.60 1016.81 1017.04 1017.25 1017.46 1017.64 1017.80
1015.91 1015.78 1015.77 1015.86 1016.01 1016.16 1016.26 1016.25 1016.11 1015.83 1015.42 1014.92 1014.37 1013.82 1013.29 1012.83 1012.45 1012.15 1011.94 1011.80 1011.74 1011.76 1011.85 1012.03 1012.29 1012.64 1013.06 1013.52 1014.01 1014.48 1014.93 1015.33 1015.67 1015.96 1016.20 1016.42 1016.63 1016.85 1017.06 1017.29 1017.51 1017.71 1017.88
1015.71 1015.57 1015.57 1015.68 1015.86 1016.05 1016.21 1016.27 1016.23 1016.05 1015.76 1015.38 1014.95 1014.50 1014.05 1013.64 1013.26 1012.92 1012.63 1012.38 1012.19 1012.07 1012.03 1012.09 1012.26 1012.54 1012.91 1013.35 1013.84 1014.33 1014.80 1015.23 1015.59 1015.89 1016.15 1016.37 1016.59 1016.80 1017.01 1017.23 1017.46 1017.67 1017.86
1015.48 1015.35 1015.35 1015.46 1015.65 1015.86 1016.05 1016.16 1016.19 1016.11 1015.93 1015.68 1015.38 1015.06 1014.72 1014.37 1014.03 1013.68 1013.34 1013.01 1012.71 1012.46 1012.29 1012.22 1012.28 1012.46 1012.77 1013.17 1013.63 1014.12 1014.59 1015.03 1015.41 1015.74 1016.01 1016.25 1016.47 1016.68 1016.90 1017.12 1017.34 1017.56 1017.76
1015.18 1015.06 1015.06 1015.17 1015.35 1015.56 1015.76 1015.91 1015.99 1015.98 1015.91 1015.79 1015.62 1015.42 1015.20 1014.95 1014.67 1014.35 1013.99 1013.61 1013.23 1012.87 1012.59 1012.40 1012.35 1012.43 1012.65 1012.99 1013.40 1013.86 1014.33 1014.78 1015.18 1015.52 1015.82 1016.08 1016.32 1016.54 1016.76 1016.98 1017.20 1017.41 1017.61
1014.78 1014.68 1014.68 1014.78 1014.95 1015.14 1015.33 1015.49 1015.60 1015.65 1015.67 1015.64 1015.60 1015.53 1015.43 1015.28 1015.09 1014.82 1014.48 1014.09 1013.67 1013.25 1012.88 1012.60 1012.45 1012.44 1012.57 1012.82 1013.18 1013.60 1014.04 1014.48 1014.90 1015.27 1015.60 1015.89 1016.15 1016.39 1016.62 1016.85 1017.06 1017.27 1017.46
1014.26 1014.18 1014.19 1014.28 1014.43 1014.60 1014.76 1014.91 1015.03 1015.12 1015.20 1015.26 1015.32 1015.36 1015.38 1015.34 1015.24 1015.05 1014.77 1014.40 1013.98 1013.54 1013.13 1012.79 1012.56 1012.46 1012.50 1012.68 1012.96 1013.33 1013.74 1014.17 1014.59 1014.99 1015.35 1015.68 1015.98 1016.26 1016.51 1016.74 1016.96 1017.16 1017.35
1013.62 1013.57 1013.59 1013.66 1013.79 1013.93 1014.07 1014.20 1014.32 1014.43 1014.54 1014.66 1014.80 1014.94 1015.06 1015.13 1015.13 1015.03 1014.83 1014.52 1014.14 1013.72 1013.30 1012.93 1012.65 1012.48 1012.45 1012.55 1012.76 1013.07 1013.44 1013.85 1014.28 1014.70 1015.10 1015.48 1015.82 1016.13 1016.42 1016.67 1016.90 1017.10 1017.29
1012.90 1012.86 1012.88 1012.95 1013.05 1013.16 1013.27 1013.38 1013.48 1013.60 1013.74 1013.91 1014.10 1014.31 1014.52 1014.68 1014.79 1014.79 1014.68 1014.46 1014.16 1013.78 1013.39 1013.02 1012.71 1012.50 1012.40 1012.42 1012.56 1012.81 1013.13 1013.52 1013.95 1014.39 1014.83 1015.25 1015.65 1016.01 1016.33 1016.61 1016.86 1017.07 1017.26
1012.11 1012.08 1012.09 1012.15 1012.23 1012.32 1012.41 1012.50 1012.60 1012.71 1012.86 1013.05 1013.28 1013.55 1013.82 1014.08 1014.27 1014.37 1014.37 1014.25 1014.03 1013.73 1013.39 1013.04 1012.72 1012.48 1012.33 1012.28 1012.36 1012.54 1012.81 1013.17 1013.60 1014.05 1014.53 1015.00 1015.44 1015.86 1016.22 1016.53 1016.80 1017.03 1017.23
1011.30 1011.26 1011.27 1011.31 1011.38 1011.45 1011.53 1011.60 1011.68 1011.79 1011.95 1012.15 1012.41 1012.72 1013.04 1013.36 1013.64 1013.83 1013.93 1013.91 1013.79 1013.57 1013.29 1012.98 1012.67 1012.40 1012.21 1012.12 1012.12 1012.24 1012.48 1012.80 1013.22 1013.69 1014.19 1014.70 1015.20 1015.66 1016.06 1016.41 1016.70 1016.94 1017.14
1010.48 1010.42 1010.42 1010.45 1010.50 1010.56 1010.63 1010.69 1010.76 1010.87 1011.02 1011.24 1011.52 1011.85 1012.21 1012.59 1012.93 1013.21 1013.40 1013.48 1013.45 1013.31 1013.10 1012.83 1012.54 1012.26 1012.04 1011.90 1011.85 1011.92 1012.11 1012.41 1012.81 1013.29 1013.82 1014.37 1014.91 1015.40 1015.84 1016.21 1016.52 1016.76 1016.97
1009.66 1009.57 1009.55 1009.57 1009.61 1009.66 1009.71 1009.76 1009.83 1009.93 1010.09 1010.30 1010.59 1010.94 1011.33 1011.75 1012.15 1012.50 1012.77 1012.94 1013.00 1012.95 1012.80 1012.57 1012.31 1012.03 1011.79 1011.61 1011.53 1011.56 1011.71 1011.99 1012.39 1012.88 1013.42 1014.00 1014.57 1015.10 1015.56 1015.95 1016.26 1016.51 1016.71
1008.81 1008.70 1008.65 1008.65 1008.68 1008.71 1008.76 1008.80 1008.86 1008.96 1009.10 1009.32 1009.61 1009.97 1010.39 1010.84 1011.28 1011.70 1012.04 1012.29 1012.43 1012.45 1012.37 1012.19 1011.96 1011.70 1011.45 1011.25 1011.14 1011.14 1011.28 1011.54 1011.94 1012.44 1013.01 1013.61 1014.21 1014.76 1015.24 1015.63 1015.94 1016.18 1016.35
1007.92 1007.78 1007.71 1007.69 1007.69 1007.71 1007.73 1007.76 1007.81 1007.89 1008.03 1008.24 1008.53 1008.90 1009.34 1009.81 1010.31 1010.77 1011.18 1011.51 1011.72 1011.82 1011.80 1011.68 1011.48 1011.24 1011.00 1010.80 1010.68 1010.68 1010.80 1011.07 1011.48 1012.00 1012.59 1013.21 1013.83 1014.40 1014.89 1015.28 1015.58 1015.79 1015.94
1006.96 1006.79 1006.70 1006.65 1006.63 1006.62 1006.62 1006.63 1006.65 1006.72 1006.84 1007.05 1007.33 1007.71 1008.16 1008.67 1009.20 1009.72 1010.20 1010.59 1010.87 1011.04 1011.08 1011.02 1010.86 1010.65 1010.44 1010.25 1010.14 1010.15 1010.29 1010.57 1011.00 1011.54 1012.16 1012.81 1013.45 1014.03 1014.53 1014.92 1015.20 1015.38 1015.50
1005.91 1005.72 1005.60 1005.52 1005.47 1005.43 1005.39 1005.37 1005.37 1005.41 1005.52 1005.72 1006.01 1006.39 1006.87 1007.41 1007.98 1008.56 1009.09 1009.55 1009.90 1010.13 1010.24 1010.23 1010.12 1009.96 1009.77 1009.62 1009.53 1009.56 1009.72 1010.03 1010.49 1011.06 1011.71 1012.39 1013.05 1013.65 1014.16 1014.54 1014.81 1014.97 1015.06
1004.78 1004.57 1004.41 1004.30 1004.20 1004.12 1004.05 1003.99 1003.96 1003.98 1004.08 1004.28 1004.57 1004.98 1005.48 1006.06 1006.68 1007.31 1007.90 1008.42 1008.84 1009.14 1009.31 1009.35 1009.30 1009.17 1009.03 1008.91 1008.86 1008.92 1009.11 1009.46 1009.94 1010.55 1011.23 1011.94 1012.63 1013.25 1013.76 1014.16 1014.42 1014.57 1014.63
1003.58 1003.33 1003.14 1002.98 1002.84 1002.71 1002.59 1002.50 1002.45 1002.46 1002.56 1002.76 1003.08 1003.51 1004.05 1004.68 1005.35 1006.03 1006.68 1007.26 1007.74 1008.10 1008.32 1008.42 1008.42 1008.34 1008.24 1008.16 1008.14 1008.24 1008.47 1008.85 1009.37 1010.01 1010.72 1011.46 1012.18 1012.82 1013.35 1013.75 1014.01 1014.16 1014.22
Thickness
5723 5722 5722 5722 5721 5721 5721 5721 5721 5721 5721 5720 5720 5719 5719 5719 5719 5719 5719 5720 5721 5721 5721 5721 5721 5721 5720 5721 5720 5720 5721 5720 5721 5720 5719 5719 5719 5719 5719 5718 5718 5718 5718
5720 5718 5717 5717 5717 5717 5716 5716 5716 5715 5715 5714 5713 5713 5713 5713 5713 5713 5713 5714 5714 5715 5715 5716 5716 5715 5715 5715 5715 5715 5715 5715 5715 5715 5715 5714 5714 5715 5714 5714 5714 5714 5713
5716 5715 5713 5712 5712 5712 5712 5711 5711 5710 5709 5709 5708 5707 5707 5707 5707 5707 5707 5708 5708 5709 5710 5710 5710 5709 5709 5710 5710 5709 5709 5710 5710 5709 5710 5709 5709 5710 5710 5710 5710 5709 5709
5713 5711 5709 5708 5708 5707 5707 5706 5704 5703 5702 5702 5701 5702 5702 5701 5701 5701 5701 5702 5703 5703 5703 5704 5704 5704 5704 5704 5704 5704 5704 5704 5704 5704 5704 5704 5704 5705 5705 5705 5705 5705 5704
5708 5707 5705 5704 5703 5702 5701 5701 5698 5697 5696 5695 5696 5695 5695 5695 5695 5696 5696 5696 5697 5697 5697 5697 5697 5697 5698 5698 5698 5698 5698 5698 5698 5698 5699 5699 5699 5700 5700 5700 5700 5699 5699
5704 5702 5700 5699 5698 5697 5695 5694 5693 5692 5691 5690 5691 5689 5688 5689 5690 5689 5690 5690 5691 5691 5691 5691 5691 5691 5691 5692 5692 5693 5693 5693 5693 5693 5693 5693 5694 5695 5695 5695 5695 5694 5693
5699 5698 5696 5694 5693 5691 5689 5688 5687 5685 5684 5684 5682 5680 5681 5682 5683 5683 5683 5684 5684 5685 5685 5685 5685 5685 5685 5685 5686 5687 5687 5687 5687 5687 5688 5688 5688 5689 5690 5690 5689 5689 5688
5695 5693 5691 5690 5688 5686 5684 5683 5681 5679 5678 5678 5675 5672 5669 5671 5674 5676 5676 5677 5677 5678 5678 5679 5679 5679 5679 5679 5680 5681 5681 5681 5682 5682 5682 5683 5683 5684 5684 5684 5684 5683 5683
5690 5689 5687 5686 5684 5682 5679 5678 5676 5674 5671 5671 5672 5668 5662 5660 5662 5667 5669 5670 5671 5671 5672 5672 5673 5673 5674 5674 5675 5675 5675 5676 5676 5677 5677 5677 5677 5678 5678 5678 5678 5677 5677
5686 5684 5683 5681 5679 5678 5675 5674 5673 5671 5668 5666 5666 5666 5665 5663 5658 5657 5661 5663 5665 5666 5666 5667 5667 5668 5668 5669 5670 5670 5670 5670 5671 5671 5671 5671 5672 5672 5672 5672 5672 5671 5671
5681 5680 5679 5677 5675 5673 5672 5670 5668 5667 5665 5663 5662 5661 5660 5659 5658 5654 5652 5653 5656 5659 5661 5662 5662 5662 5663 5664 5665 5665 5665 5665 5665 5666 5666 5666 5666 5666 5666 5666 5666 5665 5665
5675 5675 5674 5673 5671 5669 5667 5665 5664 5662 5661 5660 5659 5658 5657 5655 5653 5651 5648 5647 5648 5651 5654 5656 5657 5657 5658 5658 5659 5659 5660 5660 5660 5660 5660 5660 5660 5660 5660 5660 5660 5660 5660
5669 5669 5669 5668 5666 5665 5663 5661 5659 5657 5657 5655 5655 5654 5654 5654 5653 5650 5647 5644 5643 5645 5647 5650 5651 5652 5653 5654 5654 5655 5655 5655 5654 5654 5654 5654 5654 5654 5654 5654 5654 5654 5654
5666 5666 5665 5663 5662 5661 5659 5657 5655 5653 5652 5651 5651 5650 5649 5649 5649 5648 5646 5642 5639 5638 5640 5642 5645 5647 5648 5649 5650 5649 5649 5650 5649 5649 5649 5649 5649 5648 5648 5649 5648 5648 5648
5663 5662 5660 5658 5657 5655 5654 5652 5650 5649 5648 5647 5646 5645 5644 5644 5644 5645 5644 5643 5639 5634 5634 5637 5638 5642 5643 5644 5644 5644 5644 5645 5645 5645 5644 5644 5643 5643 5643 5643 5643 5642 5642
5659 5657 5655 5653 5652 5650 5649 5647 5646 5645 5643 5642 5641 5640 5639 5638 5639 5639 5639 5639 5638 5635 5632 5633 5634 5636 5638 5638 5638 5639 5639 5639 5639 5639 5639 5639 5638 5638 5637 5637 5637 5636 5636
5654 5652 5650 5648 5647 5646 5644 5642 5641 5640 5638 5637 5637 5635 5634 5634 5633 5633 5633 5633 5632 5631 5628 5628 5629 5631 5631 5632 5633 5633 5633 5633 5634 5634 5633 5633 5633 5632 5632 5631 5631 5630 5631
5649 5647 5645 5643 5642 5641 5639 5637 5635 5635 5633 5632 5631 5631 5629 5629 5628 5627 5627 5626 5626 5625 5624 5622 5622 5623 5624 5626 5626 5627 5627 5627 5627 5628 5628 5627 5627 5626 5626 5625 5625 5625 5625
5643 5641 5640 5638 5637 5636 5634 5632 5631 5630 5628 5627 5626 5625 5624 5624 5622 5622 5621 5620 5620 5620 5618 5617 5616 5616 5617 5618 5618 5619 5620 5620 5621 5622 5621 5621 5620 5620 5619 5619 5619 5619 5619
5637 5635 5634 5633 5631 5630 5628 5627 5626 5624 5623 5622 5622 5621 5620 5619 5618 5617 5616 5615 5614 5612 5611 5610 5609 5609 5609 5610 5610 5610 5610 5611 5613 5615 5614 5614 5613 5613 5613 5612 5613 5613 5613
5631 5629 5628 5626 5625 5624 5623 5621 5620 5619 5617 5616 5615 5615 5615 5615 5614 5613 5612 5610 5608 5605 5604 5603 5602 5601 5601 5601 5602 5603 5603 5603 5604 5606 5606 5606 5606 5606 5606 5606 5606 5606 5606
5624 5623 5621 5619 5618 5618 5618 5617 5615 5612 5611 5609 5608 5608 5609 5608 5608 5607 5607 5605 5604 5601 5598 5596 5595 5595 5596 5596 5597 5597 5595 5594 5595 5598 5597 5598 5599 5599 5599 5599 5599 5599 5599
5618 5616 5614 5612 5611 5611 5611 5610 5609 5606 5604 5602 5602 5601 5602 5602 5600 5599 5599 5598 5597 5597 5596 5594 5591 5590 5591 5592 5591 5590 5590 5589 5590 5592 5590 5590 5591 5591 5593 5593 5593 5593 5593
5611 5609 5607 5606 5605 5604 5605 5604 5602 5599 5597 5596 5595 5595 5594 5593 5593 5592 5591 5589 5588 5588 5588 5588 5588 5587 5587 5587 5587 5587 5586 5584 5584 5585 5584 5582 5583 5583 5586 5586 5586 5586 5586
5604 5602 5601 5599 5597 5597 5597 5597 5595 5591 5589 5587 5587 5587 5586 5585 5585 5584 5582 5580 5579 5580 5581 5581 5582 5582 5581 5581 5580 5578 5577 5576 5575 5576 5577 5575 5575 5575 5576 5578 5579 5579 5579
5598 5596 5594 5592 5591 5590 5590 5589 5587 5584 5581 5579 5578 5578 5578 5577 5577 5575 5573 5571 5570 5571 5571 5572 5573 5573 5573 5573 5573 5572 5571 5570 5569 5568 5570 5569 5568 5567 5566 5568 5570 5570 5570